Weather in Romanovka

Russia / Voronezh Oblast     51°21′36″N   40°07′29″E
temp.,
°C
wind,
m/s
gust,
m/s
humid.,
%
clouds,
%
prec.,
mm/h
press.,
hPa
HPBL,
m
27 july, tue
tue2700:00+18ese12540 0.0 102211
03:00+17se22540 0.0 102211
06:00+18s11545 0.0 102211
09:00+24ssw22385 0.0 1022406
12:00+28w443523 0.0 10211074
15:00+29wsw243380 0.0 10191899
18:00+24ene355438 0.1 1019118
21:00+19e337627 1.7 101932
28 july, wed
wed2800:00+18e117819 0.5 101911
03:00+17nw11775 0.5 101911
06:00+18sse2278100 0.0 101821
09:00+23s226082 0.0 1018355
12:00+29ssw33395 0.0 10161656
15:00+31s563064 0.0 10142830
18:00+27s4737100 0.0 1013164
21:00+24nne4549100 0.0 1013130
29 july, thu
thu2900:00+21nne3664100 0.1 1012136
03:00+21sw356128 0.3 1011100
06:00+20sw310745 0.1 1010287
09:00+25w46573 0.1 1010684
12:00+31w573993 0.0 10092675
15:00+28nw374693 0.0 1009246
18:00+28nw4743100 0.0 1008194
21:00+23wsw3362100 0.2 100926
30 july, fri
fri3000:00+23ssw356360 0.1 100879
03:00+20w3482100 0.4 100855
06:00+20nw2283100 0.4 100975
09:00+25w1163100 0.5 1009469
12:00+30sw344720 0.0 10091638
15:00+29s2352100 0.3 1007314
18:00+27wsw1161100 0.0 100717
21:00+23n22711 0.1 100811
31 july, sat
sat3100:00+22ne117561 0.0 100812
03:00+22nnw227171 0.0 100829
06:00+22nw22740 0.0 100829
09:00+28w2252100 0.0 1009667
12:00+29s334421 0.0 10081239
15:00+30s2441100 0.0 1007857
18:00+30ene214022 0.0 1007269
21:00+24n22465 0.0 100911